Regional Weather Roundup
Issued by NWS Cleveland, OH

Home | Current Version | Previous Version | Graphics & Text | Print | Product List | Glossary On
Versions: 1 2 3 4 5 6 7 8 9 10 11 12 13 14 15 16 17 18 19 20 21 22 23 24 25 26 27 28 29 30 31 32 33 34 35 36 37 38 39 40 41 42 43 44 45 46 47 48 49 50
000
ASUS41 KCLE 221702
RWRCLE
OHIO REGIONAL WEATHER ROUNDUP
NATIONAL WEATHER SERVICE CLEVELAND, OH
100 PM EDT FRI AUG 22 2014

NOTE: "FAIR" INDICATES FEW OR NO CLOUDS BELOW 12,000 FEET WITH NO
SIGNIFICANT WEATHER AND/OR OBSTRUCTIONS TO VISIBILITY.

OHZ001>008-015>018-024>027-034-035-043-044-221800-
   NORTHWEST OHIO

CITY           SKY/WX    TMP DP  RH WIND       PRES   REMARKS
DEFIANCE       MOSUNNY   83  70  64 CALM      29.96F
FINDLAY        MOSUNNY   83  70  64 VRB6      29.95F
TOLEDO EXPRESS CLOUDY    79  70  74 W3        29.97S
TOLEDO EXEC    CLOUDY    81  69  67 CALM      29.98S
LIMA           PTSUNNY   81  72  74 CALM      29.98S
$$

OHZ009>014-019>023-028>033-038-089-221800-
   NORTHEAST OHIO

CITY           SKY/WX    TMP DP  RH WIND       PRES   REMARKS
CLE-HOPKINS    PTSUNNY   81  71  71 N6        29.99S
CLE-LAKEFRONT  MOSUNNY   77  71  82 N6        29.96S
CUY CO. ARPT   PTSUNNY   81  75  83 NW5       29.99F
LORAIN-ELYRIA  PTSUNNY   84  70  62 CALM      29.98S
ASHTABULA      CLOUDY    78  70  76 CALM      29.99S
AKRON-CANTON   PTSUNNY   77  68  73 VRB5      29.99F
WOOSTER        CLOUDY    80  71  74 S6        30.00S
MANSFIELD      PTSUNNY   81  70  69 W6        30.00F
YOUNGSTOWN     PTSUNNY   78  70  76 CALM      30.00S
$$

OHZ042-051>053-060>062-070>072-077>081-221800-
  SOUTHWEST OHIO

CITY           SKY/WX    TMP DP  RH WIND       PRES   REMARKS
CINC-COVINGTON CLOUDY    79  74  84 SW8       29.99F
CINC-LUNKEN    LGT RAIN  80  75  84 S8        29.98F
HAMILTON       LGT RAIN  79  75  87 SW5       29.99F
DAYTON         CLOUDY    78  71  79 S5        29.99F
WRIGHT-PAT AFB NOT AVBL
DAYTON GENERAL CLOUDY    77  73  87 SW7       29.98F
WILMINGTON     CLOUDY    77  72  84 S7        30.00F
$$

OHZ036-037-039>041-045>050-054>059-063>069-073>076-082>088-221800-
  CENTRAL AND SOUTHEAST OHIO

CITY           SKY/WX    TMP DP  RH WIND       PRES   REMARKS
COLUMBUS       CLOUDY    80  70  71 SE3       29.99S
OSU AIRPORT    CLOUDY    79  70  74 SW3       30.00R
BOLTON FIELD   PTSUNNY   79  73  83 S5        30.00F
RICKENBACK AFB CLOUDY    78  68  70 S7        30.00R
NEWARK         PTSUNNY   79  71  76 S8        30.00R
MARION         MOSUNNY   82  70  66 N5        29.98F
LANCASTER      CLOUDY    79  71  76 SE7       30.01S
ZANESVILLE     PTSUNNY   79  70  74 S6        30.00F
NEW PHILLY     CLOUDY    76  71  85 CALM      30.01S
$$


USA.gov is the U.S. government's official web portal to all federal, state and local government web resources and services.